date,time,SUV Intensity [MED/Hr],UV Index,Daily total [MED],Since Last [MED]
03/03/2022,00:05:18,-0.000,0.0,0.0,0.0
03/03/2022,00:06:18,0.000,0.0,0.0,0.0
03/03/2022,00:07:18,0.000,0.0,0.0,0.0
03/03/2022,00:08:26,0.000,0.0,0.0,0.0
03/03/2022,00:09:18,0.000,0.0,0.0,0.0
03/03/2022,00:10:18,-0.000,0.0,0.0,0.0
03/03/2022,00:11:11,0.000,0.0,0.0,0.0
03/03/2022,00:12:19,0.000,0.0,0.0,0.0
03/03/2022,00:13:18,0.000,0.0,0.0,0.0
03/03/2022,00:14:18,0.000,0.0,0.0,0.0
03/03/2022,00:15:19,0.000,0.0,0.0,0.0
03/03/2022,00:16:19,0.000,0.0,0.0,0.0
03/03/2022,00:17:19,-0.000,0.0,0.0,0.0
03/03/2022,00:18:27,0.000,0.0,0.0,0.0
03/03/2022,00:19:17,0.000,0.0,0.0,0.0
03/03/2022,00:20:19,0.000,0.0,0.0,0.0
03/03/2022,00:21:27,0.000,0.0,0.0,0.0
03/03/2022,00:22:18,0.000,0.0,0.0,0.0
03/03/2022,00:23:18,0.000,0.0,0.0,0.0
03/03/2022,00:24:27,0.000,0.0,0.0,0.0
03/03/2022,00:25:19,-0.000,0.0,0.0,0.0
03/03/2022,00:26:19,0.000,0.0,0.0,0.0
03/03/2022,00:27:27,0.000,0.0,0.0,0.0
03/03/2022,00:28:19,0.000,0.0,0.0,0.0
03/03/2022,00:29:18,0.001,0.0,0.0,0.0
03/03/2022,00:30:18,0.000,0.0,0.0,0.0
03/03/2022,00:31:18,0.000,0.0,0.0,0.0
03/03/2022,00:32:18,0.000,0.0,0.0,0.0
03/03/2022,00:33:18,0.000,0.0,0.0,0.0
03/03/2022,00:34:19,-0.000,0.0,0.0,0.0
03/03/2022,00:35:18,0.000,0.0,0.0,0.0
03/03/2022,00:36:18,0.000,0.0,0.0,0.0
03/03/2022,00:37:27,0.000,0.0,0.0,0.0
03/03/2022,00:38:17,0.000,0.0,0.0,0.0
03/03/2022,00:39:19,0.000,0.0,0.0,0.0
03/03/2022,00:40:26,0.000,0.0,0.0,0.0
03/03/2022,00:41:18,0.000,0.0,0.0,0.0
03/03/2022,00:42:18,0.000,0.0,0.0,0.0
03/03/2022,00:43:19,0.000,0.0,0.0,0.0
03/03/2022,00:44:19,0.000,0.0,0.0,0.0
03/03/2022,00:45:19,-0.000,0.0,0.0,0.0
03/03/2022,00:46:19,0.000,0.0,0.0,0.0
03/03/2022,00:47:19,0.000,0.0,0.0,0.0
03/03/2022,00:48:18,0.000,0.0,0.0,0.0
03/03/2022,00:49:18,0.000,0.0,0.0,0.0
03/03/2022,00:50:27,0.000,0.0,0.0,0.0
03/03/2022,00:51:17,0.000,0.0,0.0,0.0
03/03/2022,00:52:19,0.000,0.0,0.0,0.0
03/03/2022,00:53:18,0.000,0.0,0.0,0.0
03/03/2022,00:54:18,0.000,0.0,0.0,0.0
03/03/2022,00:55:19,0.000,0.0,0.0,0.0
03/03/2022,00:56:18,0.000,0.0,0.0,0.0
03/03/2022,00:57:19,0.000,0.0,0.0,0.0
03/03/2022,00:58:19,0.000,0.0,0.0,0.0
03/03/2022,00:59:19,0.000,0.0,0.0,0.0
03/03/2022,01:00:18,0.000,0.0,0.0,0.0
03/03/2022,01:01:18,0.000,0.0,0.0,0.0
03/03/2022,01:03:10,0.000,0.0,0.0,0.0
03/03/2022,01:04:18,0.000,0.0,0.0,0.0
03/03/2022,01:05:18,0.000,0.0,0.0,0.0
03/03/2022,01:06:18,0.000,0.0,0.0,0.0
03/03/2022,01:07:18,0.000,0.0,0.0,0.0
03/03/2022,01:08:26,0.000,0.0,0.0,0.0
03/03/2022,01:09:18,0.000,0.0,0.0,0.0
03/03/2022,01:10:18,0.000,0.0,0.0,0.0
03/03/2022,01:11:19,0.000,0.0,0.0,0.0
03/03/2022,01:12:18,-0.001,0.0,0.0,0.0
03/03/2022,01:13:19,0.000,0.0,0.0,0.0
03/03/2022,01:14:18,-0.001,0.0,0.0,0.0
03/03/2022,01:15:18,0.000,0.0,0.0,0.0
03/03/2022,01:16:18,-0.001,0.0,0.0,0.0
03/03/2022,01:17:18,0.000,0.0,0.0,0.0
03/03/2022,01:18:26,0.000,0.0,0.0,0.0
03/03/2022,01:19:18,0.000,0.0,0.0,0.0
03/03/2022,01:20:18,0.000,0.0,0.0,0.0
03/03/2022,01:21:18,0.000,0.0,0.0,0.0
03/03/2022,01:22:18,0.000,0.0,0.0,0.0
03/03/2022,01:23:18,0.000,0.0,0.0,0.0
03/03/2022,01:24:18,0.000,0.0,0.0,0.0
03/03/2022,01:25:10,0.000,0.0,0.0,0.0
03/03/2022,01:26:19,-0.001,0.0,0.0,0.0
03/03/2022,01:27:19,-0.000,0.0,0.0,0.0
03/03/2022,01:28:19,0.000,0.0,0.0,0.0
03/03/2022,01:29:19,0.000,0.0,0.0,0.0
03/03/2022,01:30:19,0.000,0.0,0.0,0.0
03/03/2022,01:31:18,0.000,0.0,0.0,0.0
03/03/2022,01:32:18,0.000,0.0,0.0,0.0
03/03/2022,01:33:18,-0.000,0.0,0.0,0.0
03/03/2022,01:34:26,0.000,0.0,0.0,0.0
03/03/2022,01:35:18,0.000,0.0,0.0,0.0
03/03/2022,01:36:18,-0.001,0.0,0.0,0.0
03/03/2022,01:37:18,0.000,0.0,0.0,0.0
03/03/2022,01:38:19,0.000,0.0,0.0,0.0
03/03/2022,01:39:19,0.000,0.0,0.0,0.0
03/03/2022,01:40:18,0.000,0.0,0.0,0.0
03/03/2022,01:41:18,0.000,0.0,0.0,0.0
03/03/2022,01:42:18,0.000,0.0,0.0,0.0
03/03/2022,01:43:18,0.000,0.0,0.0,0.0
03/03/2022,01:44:18,0.000,0.0,0.0,0.0
03/03/2022,01:45:19,0.000,0.0,0.0,0.0
03/03/2022,01:46:35,0.000,0.0,0.0,0.0
03/03/2022,01:48:19,0.000,0.0,0.0,0.0
03/03/2022,01:49:19,0.000,0.0,0.0,0.0
03/03/2022,01:50:18,0.000,0.0,0.0,0.0
03/03/2022,01:51:18,0.000,0.0,0.0,0.0
03/03/2022,01:52:18,0.000,0.0,0.0,0.0
03/03/2022,01:53:19,0.000,0.0,0.0,0.0
03/03/2022,01:54:19,0.000,0.0,0.0,0.0
03/03/2022,01:55:18,0.000,0.0,0.0,0.0
03/03/2022,01:56:18,0.000,0.0,0.0,0.0
03/03/2022,01:57:27,0.000,0.0,0.0,0.0
03/03/2022,01:58:18,0.000,0.0,0.0,0.0
03/03/2022,01:59:26,0.000,0.0,0.0,0.0
03/03/2022,02:00:18,0.000,0.0,0.0,0.0
03/03/2022,02:01:18,0.000,0.0,0.0,0.0
03/03/2022,02:02:18,-0.001,0.0,0.0,0.0
03/03/2022,02:03:18,0.000,0.0,0.0,0.0
03/03/2022,02:04:18,0.000,0.0,0.0,0.0
03/03/2022,02:05:26,0.000,0.0,0.0,0.0
03/03/2022,02:06:19,0.001,0.0,0.0,0.0
03/03/2022,02:07:19,0.000,0.0,0.0,0.0
03/03/2022,02:08:18,0.000,0.0,0.0,0.0
03/03/2022,02:09:18,0.000,0.0,0.0,0.0
03/03/2022,02:10:18,0.000,0.0,0.0,0.0
03/03/2022,02:11:18,0.000,0.0,0.0,0.0
03/03/2022,02:12:18,0.000,0.0,0.0,0.0
03/03/2022,02:13:19,0.000,0.0,0.0,0.0
03/03/2022,02:14:18,0.000,0.0,0.0,0.0
03/03/2022,02:15:27,0.000,0.0,0.0,0.0
03/03/2022,02:16:18,0.000,0.0,0.0,0.0
03/03/2022,02:17:18,0.000,0.0,0.0,0.0
03/03/2022,02:18:27,0.000,0.0,0.0,0.0
03/03/2022,02:19:18,0.000,0.0,0.0,0.0
03/03/2022,02:20:18,0.000,0.0,0.0,0.0
03/03/2022,02:21:18,0.000,0.0,0.0,0.0
03/03/2022,02:22:19,0.000,0.0,0.0,0.0
03/03/2022,02:23:18,0.000,0.0,0.0,0.0
03/03/2022,02:24:18,0.000,0.0,0.0,0.0
03/03/2022,02:25:18,0.000,0.0,0.0,0.0
03/03/2022,02:26:18,0.000,0.0,0.0,0.0
03/03/2022,02:27:18,0.000,0.0,0.0,0.0
03/03/2022,02:28:26,0.000,0.0,0.0,0.0
03/03/2022,02:29:18,0.000,0.0,0.0,0.0
03/03/2022,02:30:19,0.000,0.0,0.0,0.0
03/03/2022,02:31:19,0.000,0.0,0.0,0.0
03/03/2022,02:32:19,0.000,0.0,0.0,0.0
03/03/2022,02:33:19,0.000,0.0,0.0,0.0
03/03/2022,02:34:27,0.000,0.0,0.0,0.0
03/03/2022,02:35:19,0.000,0.0,0.0,0.0
03/03/2022,02:36:18,0.000,0.0,0.0,0.0
03/03/2022,02:37:19,0.000,0.0,0.0,0.0
03/03/2022,02:38:18,0.000,0.0,0.0,0.0
03/03/2022,02:39:18,0.000,0.0,0.0,0.0
03/03/2022,02:40:18,0.000,0.0,0.0,0.0
03/03/2022,02:41:18,0.000,0.0,0.0,0.0
03/03/2022,02:42:18,0.000,0.0,0.0,0.0
03/03/2022,02:43:19,0.000,0.0,0.0,0.0
03/03/2022,02:44:19,0.000,0.0,0.0,0.0
03/03/2022,02:45:19,0.000,0.0,0.0,0.0
03/03/2022,02:46:18,0.000,0.0,0.0,0.0
03/03/2022,02:47:27,0.000,0.0,0.0,0.0
03/03/2022,02:48:19,0.000,0.0,0.0,0.0
03/03/2022,02:49:12,0.000,0.0,0.0,0.0
03/03/2022,02:50:19,0.000,0.0,0.0,0.0
03/03/2022,02:51:26,0.000,0.0,0.0,0.0
03/03/2022,02:52:18,0.000,0.0,0.0,0.0
03/03/2022,02:53:19,0.000,0.0,0.0,0.0
03/03/2022,02:54:18,0.000,0.0,0.0,0.0
03/03/2022,02:55:19,0.000,0.0,0.0,0.0
03/03/2022,02:56:19,0.000,0.0,0.0,0.0
03/03/2022,02:57:19,0.000,0.0,0.0,0.0
03/03/2022,02:58:19,0.000,0.0,0.0,0.0
03/03/2022,02:59:19,0.000,0.0,0.0,0.0
03/03/2022,03:00:27,0.000,0.0,0.0,0.0
03/03/2022,03:01:18,0.000,0.0,0.0,0.0
03/03/2022,03:02:18,0.000,0.0,0.0,0.0
03/03/2022,03:03:18,0.000,0.0,0.0,0.0
03/03/2022,03:04:19,0.000,0.0,0.0,0.0
03/03/2022,03:05:19,0.000,0.0,0.0,0.0
03/03/2022,03:06:27,0.000,0.0,0.0,0.0
03/03/2022,03:07:19,0.000,0.0,0.0,0.0
03/03/2022,03:08:19,0.000,0.0,0.0,0.0
03/03/2022,03:09:18,0.000,0.0,0.0,0.0
03/03/2022,03:10:19,0.000,0.0,0.0,0.0
03/03/2022,03:11:19,0.000,0.0,0.0,0.0
03/03/2022,03:12:18,0.000,0.0,0.0,0.0
03/03/2022,03:13:18,0.000,0.0,0.0,0.0
03/03/2022,03:14:18,0.000,0.0,0.0,0.0
03/03/2022,03:15:18,0.000,0.0,0.0,0.0
03/03/2022,03:16:18,0.000,0.0,0.0,0.0
03/03/2022,03:17:18,0.000,0.0,0.0,0.0
03/03/2022,03:18:19,0.000,0.0,0.0,0.0
03/03/2022,03:19:19,0.000,0.0,0.0,0.0
03/03/2022,03:20:19,0.000,0.0,0.0,0.0
03/03/2022,03:21:19,0.000,0.0,0.0,0.0
03/03/2022,03:22:19,0.000,0.0,0.0,0.0
03/03/2022,03:23:20,0.000,0.0,0.0,0.0
03/03/2022,03:24:19,0.000,0.0,0.0,0.0
03/03/2022,03:25:19,0.000,0.0,0.0,0.0
03/03/2022,03:26:19,0.000,0.0,0.0,0.0
03/03/2022,03:27:18,0.000,0.0,0.0,0.0
03/03/2022,03:28:18,0.000,0.0,0.0,0.0
03/03/2022,03:29:18,0.000,0.0,0.0,0.0
03/03/2022,03:30:18,0.000,0.0,0.0,0.0
03/03/2022,03:31:18,0.000,0.0,0.0,0.0
03/03/2022,03:32:20,0.000,0.0,0.0,0.0
03/03/2022,03:33:18,0.000,0.0,0.0,0.0
03/03/2022,03:34:27,0.000,0.0,0.0,0.0
03/03/2022,03:35:18,0.000,0.0,0.0,0.0
03/03/2022,03:36:18,0.000,0.0,0.0,0.0
03/03/2022,03:37:26,0.000,0.0,0.0,0.0
03/03/2022,03:38:18,0.000,0.0,0.0,0.0
03/03/2022,03:39:18,0.000,0.0,0.0,0.0
03/03/2022,03:40:18,0.000,0.0,0.0,0.0
03/03/2022,03:41:19,0.000,0.0,0.0,0.0
03/03/2022,03:42:19,0.000,0.0,0.0,0.0
03/03/2022,03:43:18,0.000,0.0,0.0,0.0
03/03/2022,03:44:18,0.000,0.0,0.0,0.0
03/03/2022,03:45:18,0.000,0.0,0.0,0.0
03/03/2022,03:46:18,0.000,0.0,0.0,0.0
03/03/2022,03:47:19,0.000,0.0,0.0,0.0
03/03/2022,03:48:19,-0.001,0.0,0.0,0.0
03/03/2022,03:49:19,0.000,0.0,0.0,0.0
03/03/2022,03:50:27,0.000,0.0,0.0,0.0
03/03/2022,03:51:18,0.000,0.0,0.0,0.0
03/03/2022,03:52:18,0.000,0.0,0.0,0.0
03/03/2022,03:53:18,0.000,0.0,0.0,0.0
03/03/2022,03:54:19,0.000,0.0,0.0,0.0
03/03/2022,03:55:18,0.000,0.0,0.0,0.0
03/03/2022,03:56:18,0.000,0.0,0.0,0.0
03/03/2022,03:57:18,0.000,0.0,0.0,0.0
03/03/2022,03:58:18,0.000,0.0,0.0,0.0
03/03/2022,03:59:18,0.000,0.0,0.0,0.0
03/03/2022,04:00:27,0.000,0.0,0.0,0.0
03/03/2022,04:01:18,0.000,0.0,0.0,0.0
03/03/2022,04:02:19,0.000,0.0,0.0,0.0
03/03/2022,04:03:27,0.000,0.0,0.0,0.0
03/03/2022,04:04:18,0.000,0.0,0.0,0.0
03/03/2022,04:05:18,0.000,0.0,0.0,0.0
03/03/2022,04:06:18,0.000,0.0,0.0,0.0
03/03/2022,04:07:18,0.000,0.0,0.0,0.0
03/03/2022,04:08:19,-0.001,0.0,0.0,0.0
03/03/2022,04:09:18,0.000,0.0,0.0,0.0
03/03/2022,04:10:18,0.000,0.0,0.0,0.0
03/03/2022,04:11:18,0.000,0.0,0.0,0.0
03/03/2022,04:12:18,0.000,0.0,0.0,0.0
03/03/2022,04:13:18,0.000,0.0,0.0,0.0
03/03/2022,04:14:19,0.000,0.0,0.0,0.0
03/03/2022,04:15:19,0.000,0.0,0.0,0.0
03/03/2022,04:16:27,0.000,0.0,0.0,0.0
03/03/2022,04:17:17,0.000,0.0,0.0,0.0
03/03/2022,04:18:19,0.000,0.0,0.0,0.0
03/03/2022,04:19:27,0.000,0.0,0.0,0.0
03/03/2022,04:20:17,0.000,0.0,0.0,0.0
03/03/2022,04:21:19,0.000,0.0,0.0,0.0
03/03/2022,04:22:19,0.000,0.0,0.0,0.0
03/03/2022,04:23:19,0.000,0.0,0.0,0.0
03/03/2022,04:24:19,0.000,0.0,0.0,0.0
03/03/2022,04:25:19,0.000,0.0,0.0,0.0
03/03/2022,04:26:19,0.000,0.0,0.0,0.0
03/03/2022,04:27:19,0.001,0.0,0.0,0.0
03/03/2022,04:28:18,-0.001,0.0,0.0,0.0
03/03/2022,04:29:18,0.000,0.0,0.0,0.0
03/03/2022,04:30:18,0.000,0.0,0.0,0.0
03/03/2022,04:31:18,0.000,0.0,0.0,0.0
03/03/2022,04:32:18,0.000,0.0,0.0,0.0
03/03/2022,04:33:18,0.000,0.0,0.0,0.0
03/03/2022,04:34:18,0.000,0.0,0.0,0.0
03/03/2022,04:35:18,0.000,0.0,0.0,0.0
03/03/2022,04:36:19,0.000,0.0,0.0,0.0
03/03/2022,04:37:27,0.000,0.0,0.0,0.0
03/03/2022,04:38:19,0.000,0.0,0.0,0.0
03/03/2022,04:39:18,0.000,0.0,0.0,0.0
03/03/2022,04:40:19,0.000,0.0,0.0,0.0
03/03/2022,04:41:19,0.000,0.0,0.0,0.0
03/03/2022,04:42:19,0.000,0.0,0.0,0.0
03/03/2022,04:43:19,0.000,0.0,0.0,0.0
03/03/2022,04:44:19,0.000,0.0,0.0,0.0
03/03/2022,04:45:19,-0.001,0.0,0.0,0.0
03/03/2022,04:46:18,0.000,0.0,0.0,0.0
03/03/2022,04:47:28,-0.000,0.0,0.0,0.0
03/03/2022,04:48:17,0.000,0.0,0.0,0.0
03/03/2022,04:49:18,0.000,0.0,0.0,0.0
03/03/2022,04:50:27,-0.000,0.0,0.0,0.0
03/03/2022,04:51:17,-0.001,0.0,0.0,0.0
03/03/2022,04:52:19,0.000,0.0,0.0,0.0
03/03/2022,04:53:19,0.000,0.0,0.0,0.0
03/03/2022,04:54:19,0.000,0.0,0.0,0.0
03/03/2022,04:55:19,0.000,0.0,0.0,0.0
03/03/2022,04:56:19,0.000,0.0,0.0,0.0
03/03/2022,04:57:19,0.000,0.0,0.0,0.0
03/03/2022,04:58:19,0.000,0.0,0.0,0.0
03/03/2022,04:59:20,0.000,0.0,0.0,0.0
03/03/2022,05:00:27,0.000,0.0,0.0,0.0
03/03/2022,05:01:17,0.000,0.0,0.0,0.0
03/03/2022,05:02:19,-0.001,0.0,0.0,0.0
03/03/2022,05:03:19,0.000,0.0,0.0,0.0
03/03/2022,05:04:19,0.000,0.0,0.0,0.0
03/03/2022,05:05:19,0.000,0.0,0.0,0.0
03/03/2022,05:06:18,0.001,0.0,0.0,0.0
03/03/2022,05:07:18,0.000,0.0,0.0,0.0
03/03/2022,05:08:19,0.000,0.0,0.0,0.0
03/03/2022,05:09:19,-0.000,0.0,0.0,0.0
03/03/2022,05:10:19,0.000,0.0,0.0,0.0
03/03/2022,05:11:19,0.000,0.0,0.0,0.0
03/03/2022,05:12:19,0.000,0.0,0.0,0.0
03/03/2022,05:13:18,0.000,0.0,0.0,0.0
03/03/2022,05:14:18,-0.000,0.0,0.0,0.0
03/03/2022,05:15:19,0.000,0.0,0.0,0.0
03/03/2022,05:17:11,-0.000,0.0,0.0,0.0
03/03/2022,05:18:19,0.000,0.0,0.0,0.0
03/03/2022,05:19:19,0.000,0.0,0.0,0.0
03/03/2022,05:20:19,-0.000,0.0,0.0,0.0
03/03/2022,05:21:19,-0.000,0.0,0.0,0.0
03/03/2022,05:22:19,0.000,0.0,0.0,0.0
03/03/2022,05:23:19,0.000,0.0,0.0,0.0
03/03/2022,05:24:19,-0.000,0.0,0.0,0.0
03/03/2022,05:25:19,-0.001,0.0,0.0,0.0
03/03/2022,05:26:19,0.000,0.0,0.0,0.0
03/03/2022,05:27:18,0.000,0.0,0.0,0.0
03/03/2022,05:28:27,0.000,0.0,0.0,0.0
03/03/2022,05:29:18,0.000,0.0,0.0,0.0
03/03/2022,05:30:18,-0.000,0.0,0.0,0.0
03/03/2022,05:31:19,0.000,0.0,0.0,0.0
03/03/2022,05:32:19,0.000,0.0,0.0,0.0
03/03/2022,05:33:18,0.000,0.0,0.0,0.0
03/03/2022,05:34:19,-0.000,0.0,0.0,0.0
03/03/2022,05:35:19,0.000,0.0,0.0,0.0
03/03/2022,05:36:19,-0.001,0.0,0.0,0.0
03/03/2022,05:37:19,0.000,0.0,0.0,0.0
03/03/2022,05:38:19,0.000,0.0,0.0,0.0
03/03/2022,05:39:19,0.000,0.0,0.0,0.0
03/03/2022,05:40:19,0.000,0.0,0.0,0.0
03/03/2022,05:41:27,0.000,0.0,0.0,0.0
03/03/2022,05:42:19,0.000,0.0,0.0,0.0
03/03/2022,05:43:19,0.000,0.0,0.0,0.0
03/03/2022,05:44:27,0.000,0.0,0.0,0.0
03/03/2022,05:45:19,0.000,0.0,0.0,0.0
03/03/2022,05:46:18,-0.000,0.0,0.0,0.0
03/03/2022,05:47:19,0.000,0.0,0.0,0.0
03/03/2022,05:48:19,0.000,0.0,0.0,0.0
03/03/2022,05:49:19,0.000,0.0,0.0,0.0
03/03/2022,05:50:20,0.000,0.0,0.0,0.0
03/03/2022,05:51:19,0.000,0.0,0.0,0.0
03/03/2022,05:52:19,0.000,0.0,0.0,0.0
03/03/2022,05:53:19,0.000,0.0,0.0,0.0
03/03/2022,05:54:19,-0.001,0.0,0.0,0.0
03/03/2022,05:55:18,0.000,0.0,0.0,0.0
03/03/2022,05:56:18,0.000,0.0,0.0,0.0
03/03/2022,05:57:18,0.000,0.0,0.0,0.0
03/03/2022,05:58:19,0.000,0.0,0.0,0.0
03/03/2022,05:59:19,0.000,0.0,0.0,0.0
03/03/2022,06:00:19,0.000,0.0,0.0,0.0
03/03/2022,06:01:19,0.000,0.0,0.0,0.0
03/03/2022,06:02:19,0.000,0.0,0.0,0.0
03/03/2022,06:03:10,0.000,0.0,0.0,0.0
03/03/2022,06:04:19,0.000,0.0,0.0,0.0
03/03/2022,06:05:18,0.000,0.0,0.0,0.0
03/03/2022,06:06:27,0.000,0.0,0.0,0.0
03/03/2022,06:07:17,0.000,0.0,0.0,0.0
03/03/2022,06:08:18,0.000,0.0,0.0,0.0
03/03/2022,06:09:27,0.000,0.0,0.0,0.0
03/03/2022,06:10:18,0.000,0.0,0.0,0.0
03/03/2022,06:11:18,0.000,0.0,0.0,0.0
03/03/2022,06:12:19,0.000,0.0,0.0,0.0
03/03/2022,06:13:18,0.000,0.0,0.0,0.0
03/03/2022,06:14:19,0.000,0.0,0.0,0.0
03/03/2022,06:15:19,0.000,0.0,0.0,0.0
03/03/2022,06:16:19,0.000,0.0,0.0,0.0
03/03/2022,06:17:19,0.000,0.0,0.0,0.0
03/03/2022,06:18:19,0.000,0.0,0.0,0.0
03/03/2022,06:19:19,0.000,0.0,0.0,0.0
03/03/2022,06:20:19,0.000,0.0,0.0,0.0
03/03/2022,06:21:18,0.000,0.0,0.0,0.0
03/03/2022,06:22:18,0.000,0.0,0.0,0.0
03/03/2022,06:23:18,0.000,0.0,0.0,0.0
03/03/2022,06:24:19,0.000,0.0,0.0,0.0
03/03/2022,06:25:19,0.000,0.0,0.0,0.0
03/03/2022,06:26:19,0.000,0.0,0.0,0.0
03/03/2022,06:27:19,0.000,0.0,0.0,0.0
03/03/2022,06:28:19,0.000,0.0,0.0,0.0
03/03/2022,06:29:19,0.000,0.0,0.0,0.0
03/03/2022,06:30:19,0.000,0.0,0.0,0.0
03/03/2022,06:31:19,0.000,0.0,0.0,0.0
03/03/2022,06:32:19,0.000,0.0,0.0,0.0
03/03/2022,06:33:19,0.000,0.0,0.0,0.0
03/03/2022,06:34:18,0.000,0.0,0.0,0.0
03/03/2022,06:35:19,0.000,0.0,0.0,0.0
03/03/2022,06:36:19,0.000,0.0,0.0,0.0
03/03/2022,06:37:19,0.000,0.0,0.0,0.0
03/03/2022,06:38:19,0.000,0.0,0.0,0.0
03/03/2022,06:39:19,0.000,0.0,0.0,0.0
03/03/2022,06:40:27,0.000,0.0,0.0,0.0
03/03/2022,06:41:19,0.001,0.0,0.0,0.0
03/03/2022,06:42:19,0.002,0.0,0.0,0.0
03/03/2022,06:43:18,0.001,0.0,0.0,0.0
03/03/2022,06:44:18,0.001,0.0,0.0,0.0
03/03/2022,06:45:19,0.001,0.0,0.0,0.0
03/03/2022,06:46:19,0.001,0.0,0.0,0.0
03/03/2022,06:47:19,0.001,0.0,0.0,0.0
03/03/2022,06:48:19,0.001,0.0,0.0,0.0
03/03/2022,06:49:19,0.001,0.0,0.0,0.0
03/03/2022,06:50:19,0.002,0.0,0.0,0.0
03/03/2022,06:51:18,0.001,0.0,0.0,0.0
03/03/2022,06:52:18,0.002,0.0,0.0,0.0
03/03/2022,06:53:27,0.002,0.0,0.0,0.0
03/03/2022,06:54:18,0.002,0.0,0.0,0.0
03/03/2022,06:55:19,0.004,0.0,0.0,0.0
03/03/2022,06:56:28,0.002,0.0,0.0,0.0
03/03/2022,06:57:17,0.003,0.0,0.0,0.0
03/03/2022,06:58:19,0.003,0.0,0.0,0.0
03/03/2022,06:59:19,0.003,0.0,0.0,0.0
03/03/2022,07:00:19,0.005,0.0,0.0,0.0
03/03/2022,07:01:19,0.004,0.0,0.0,0.0
03/03/2022,07:02:19,0.004,0.0,0.0,0.0
03/03/2022,07:03:19,0.003,0.0,0.0,0.0
03/03/2022,07:04:19,0.004,0.0,0.0,0.0
03/03/2022,07:05:19,0.004,0.0,0.0,0.0
03/03/2022,07:06:20,0.005,0.0,0.0,0.0
03/03/2022,07:07:19,0.004,0.0,0.0,0.0
03/03/2022,07:08:19,0.005,0.0,0.0,0.0
03/03/2022,07:09:19,0.006,0.0,0.0,0.0
03/03/2022,07:10:19,0.006,0.0,0.0,0.0
03/03/2022,07:11:19,0.006,0.0,0.0,0.0
03/03/2022,07:12:19,0.007,0.0,0.0,0.0
03/03/2022,07:13:19,0.007,0.0,0.0,0.0
03/03/2022,07:14:19,0.007,0.0,0.0,0.0
03/03/2022,07:15:19,0.008,0.0,0.001,0.001
03/03/2022,07:16:19,0.008,0.0,0.001,0.0
03/03/2022,07:17:19,0.008,0.0,0.001,0.0
03/03/2022,07:18:19,0.009,0.0,0.001,0.0
03/03/2022,07:19:19,0.009,0.0,0.001,0.0
03/03/2022,07:20:19,0.009,0.0,0.001,0.0
03/03/2022,07:21:19,0.008,0.0,0.001,0.0
03/03/2022,07:22:19,0.010,0.0,0.002,0.001
03/03/2022,07:23:19,0.011,0.0,0.002,0.0
03/03/2022,07:24:27,0.011,0.0,0.002,0.0
03/03/2022,07:25:19,0.012,0.0,0.002,0.0
03/03/2022,07:26:19,0.012,0.0,0.002,0.0
03/03/2022,07:27:27,0.011,0.0,0.003,0.001
03/03/2022,07:28:19,0.011,0.0,0.003,0.0
03/03/2022,07:29:20,0.012,0.0,0.003,0.0
03/03/2022,07:30:19,0.011,0.0,0.003,0.0
03/03/2022,07:31:19,0.011,0.0,0.003,0.0
03/03/2022,07:32:19,0.011,0.0,0.003,0.0
03/03/2022,07:33:19,0.012,0.0,0.004,0.001
03/03/2022,07:34:19,0.011,0.0,0.004,0.0
03/03/2022,07:35:19,0.012,0.0,0.004,0.0
03/03/2022,07:36:20,0.011,0.0,0.004,0.0
03/03/2022,07:37:27,0.009,0.0,0.004,0.0
03/03/2022,07:38:17,0.009,0.0,0.005,0.001
03/03/2022,07:39:19,0.008,0.0,0.005,0.0
03/03/2022,07:40:19,0.007,0.0,0.005,0.0
03/03/2022,07:41:19,0.006,0.0,0.005,0.0
03/03/2022,07:42:20,0.007,0.0,0.005,0.0
03/03/2022,07:43:18,0.007,0.0,0.005,0.0
03/03/2022,07:44:19,0.007,0.0,0.005,0.0
03/03/2022,07:45:19,0.007,0.0,0.005,0.0
03/03/2022,07:46:18,0.009,0.0,0.006,0.001
03/03/2022,07:47:19,0.010,0.0,0.006,0.0
03/03/2022,07:48:19,0.012,0.0,0.006,0.0
03/03/2022,07:49:19,0.015,0.0,0.006,0.0
03/03/2022,07:50:19,0.015,0.0,0.006,0.0
03/03/2022,07:51:18,0.017,0.0,0.007,0.001
03/03/2022,07:52:19,0.019,0.0,0.007,0.0
03/03/2022,07:53:19,0.022,0.0,0.007,0.0
03/03/2022,07:54:19,0.024,0.0,0.008,0.001
03/03/2022,07:55:19,0.026,0.0,0.008,0.0
03/03/2022,07:56:20,0.028,0.0,0.009,0.001
03/03/2022,07:57:19,0.030,0.0,0.009,0.0
03/03/2022,07:58:19,0.032,0.0,0.009,0.0
03/03/2022,07:59:19,0.031,0.0,0.01,0.001
03/03/2022,08:00:19,0.032,0.0,0.011,0.001
03/03/2022,08:01:19,0.031,0.0,0.011,0.0
03/03/2022,08:02:19,0.031,0.0,0.012,0.001
03/03/2022,08:03:19,0.032,0.0,0.012,0.0
03/03/2022,08:04:19,0.032,0.0,0.013,0.001
03/03/2022,08:05:19,0.032,0.0,0.013,0.0
03/03/2022,08:06:21,0.032,0.0,0.014,0.001
03/03/2022,08:07:19,0.030,0.0,0.014,0.0
03/03/2022,08:08:28,0.028,0.0,0.015,0.001
03/03/2022,08:09:18,0.028,0.0,0.015,0.0
03/03/2022,08:10:19,0.030,0.0,0.016,0.001
03/03/2022,08:11:19,0.029,0.0,0.016,0.0
03/03/2022,08:12:19,0.030,0.0,0.017,0.001
03/03/2022,08:13:19,0.032,0.0,0.017,0.0
03/03/2022,08:14:19,0.034,0.0,0.018,0.001
03/03/2022,08:15:19,0.035,0.0,0.018,0.0
03/03/2022,08:16:19,0.038,0.0,0.019,0.001
03/03/2022,08:17:19,0.039,0.0,0.02,0.001
03/03/2022,08:18:19,0.040,0.0,0.02,0.0
03/03/2022,08:19:35,0.042,0.0,0.021,0.001
03/03/2022,08:21:20,0.042,0.0,0.022,0.001
03/03/2022,08:22:19,0.041,0.0,0.023,0.001
03/03/2022,08:23:19,0.039,0.0,0.024,0.001
03/03/2022,08:24:27,0.037,0.0,0.024,0.0
03/03/2022,08:25:19,0.037,0.0,0.025,0.001
03/03/2022,08:26:27,0.038,0.0,0.026,0.001
03/03/2022,08:27:27,0.038,0.0,0.026,0.0
03/03/2022,08:28:19,0.039,0.0,0.027,0.001
03/03/2022,08:29:19,0.042,0.0,0.027,0.0
03/03/2022,08:30:19,0.043,0.0,0.028,0.001
03/03/2022,08:31:19,0.045,0.0,0.029,0.001
03/03/2022,08:32:19,0.048,0.0,0.03,0.001
03/03/2022,08:33:19,0.052,0.0,0.03,0.0
03/03/2022,08:34:19,0.057,0.0,0.031,0.001
03/03/2022,08:35:19,0.059,0.0,0.032,0.001
03/03/2022,08:36:27,0.065,0.0,0.034,0.002
03/03/2022,08:37:19,0.068,0.0,0.035,0.001
03/03/2022,08:38:19,0.072,0.0,0.036,0.001
03/03/2022,08:40:20,0.082,0.0,0.038,0.002
03/03/2022,08:41:19,0.087,0.0,0.04,0.002
03/03/2022,08:42:19,0.089,0.0,0.041,0.001
03/03/2022,08:43:19,0.089,0.0,0.043,0.002
03/03/2022,08:44:19,0.089,0.0,0.044,0.001
03/03/2022,08:45:19,0.087,0.0,0.046,0.002
03/03/2022,08:46:19,0.091,0.0,0.047,0.001
03/03/2022,08:47:19,0.095,0.0,0.049,0.002
03/03/2022,08:48:19,0.099,0.0,0.05,0.001
03/03/2022,08:49:19,0.096,0.0,0.052,0.002
03/03/2022,08:50:19,0.093,0.0,0.053,0.001
03/03/2022,08:51:19,0.095,0.0,0.055,0.002
03/03/2022,08:52:19,0.095,0.0,0.057,0.002
03/03/2022,08:53:19,0.094,0.0,0.058,0.001
03/03/2022,08:54:19,0.097,0.0,0.06,0.002
03/03/2022,08:55:19,0.096,0.0,0.061,0.001
03/03/2022,08:56:19,0.094,0.0,0.063,0.002
03/03/2022,08:57:19,0.095,0.0,0.065,0.002
03/03/2022,08:58:28,0.089,0.0,0.066,0.001
03/03/2022,08:59:17,0.095,0.0,0.068,0.002
03/03/2022,09:00:19,0.096,0.0,0.069,0.001
03/03/2022,09:01:28,0.093,0.0,0.071,0.002
03/03/2022,09:02:19,0.089,0.0,0.072,0.001
03/03/2022,09:03:19,0.083,0.0,0.074,0.002
03/03/2022,09:04:19,0.085,0.0,0.075,0.001
03/03/2022,09:05:19,0.089,0.0,0.077,0.002
03/03/2022,09:06:19,0.092,0.0,0.078,0.001
03/03/2022,09:07:19,0.092,0.0,0.08,0.002
03/03/2022,09:08:19,0.091,0.0,0.081,0.001
03/03/2022,09:09:19,0.099,0.0,0.083,0.002
03/03/2022,09:10:19,0.102,0.0,0.084,0.001
03/03/2022,09:11:19,0.104,0.0,0.086,0.002
03/03/2022,09:12:19,0.106,0.0,0.088,0.002
03/03/2022,09:13:19,0.106,0.0,0.09,0.002
03/03/2022,09:14:19,0.103,0.0,0.091,0.001
03/03/2022,09:15:19,0.108,0.0,0.093,0.002
03/03/2022,09:16:19,0.111,0.0,0.095,0.002
03/03/2022,09:17:19,0.113,0.0,0.097,0.002
03/03/2022,09:18:19,0.117,0.0,0.099,0.002
03/03/2022,09:19:19,0.120,0.0,0.101,0.002
03/03/2022,09:20:19,0.117,0.0,0.103,0.002
03/03/2022,09:21:19,0.121,0.0,0.105,0.002
03/03/2022,09:22:27,0.130,0.0,0.107,0.002
03/03/2022,09:23:19,0.132,0.0,0.109,0.002
03/03/2022,09:24:19,0.127,0.0,0.111,0.002
03/03/2022,09:25:27,0.124,0.0,0.113,0.002
03/03/2022,09:26:19,0.123,0.0,0.115,0.002
03/03/2022,09:28:12,0.131,0.0,0.119,0.004
03/03/2022,09:29:27,0.121,0.0,0.122,0.003
03/03/2022,09:30:19,0.121,0.0,0.124,0.002
03/03/2022,09:31:19,0.132,0.0,0.126,0.002
03/03/2022,09:32:19,0.134,0.0,0.128,0.002
03/03/2022,09:33:19,0.130,0.0,0.13,0.002
03/03/2022,09:34:19,0.131,0.0,0.132,0.002
03/03/2022,09:35:27,0.137,0.0,0.135,0.003
03/03/2022,09:36:19,0.134,0.0,0.137,0.002
03/03/2022,09:37:19,0.138,0.0,0.139,0.002
03/03/2022,09:38:27,0.135,0.0,0.142,0.003
03/03/2022,09:39:19,0.140,0.0,0.144,0.002
03/03/2022,09:40:19,0.149,0.0,0.146,0.002
03/03/2022,09:41:19,0.143,0.0,0.149,0.003
03/03/2022,09:42:20,0.159,0.0,0.151,0.002
03/03/2022,09:43:19,0.158,0.0,0.154,0.003
03/03/2022,09:44:19,0.147,0.0,0.156,0.002
03/03/2022,09:45:19,0.145,0.0,0.159,0.003
03/03/2022,09:46:19,0.154,0.0,0.161,0.002
03/03/2022,09:47:19,0.161,0.0,0.164,0.003
03/03/2022,09:48:27,0.154,0.0,0.167,0.003
03/03/2022,09:49:19,0.152,0.0,0.169,0.002
03/03/2022,09:50:19,0.162,0.0,0.172,0.003
03/03/2022,09:51:27,0.174,0.0,0.175,0.003
03/03/2022,09:52:19,0.178,0.0,0.177,0.002
03/03/2022,09:53:19,0.177,0.0,0.18,0.003
03/03/2022,09:54:28,0.173,0.0,0.184,0.004
03/03/2022,09:55:18,0.171,0.0,0.186,0.002
03/03/2022,09:56:19,0.175,0.0,0.189,0.003
03/03/2022,09:57:27,0.182,0.0,0.192,0.003
03/03/2022,09:58:19,0.187,0.0,0.195,0.003
03/03/2022,09:59:19,0.183,0.0,0.198,0.003
03/03/2022,10:00:19,0.181,0.0,0.201,0.003
03/03/2022,10:01:19,0.171,0.0,0.204,0.003
03/03/2022,10:02:19,0.165,0.0,0.207,0.003
03/03/2022,10:03:19,0.172,0.0,0.21,0.003
03/03/2022,10:04:19,0.167,0.0,0.213,0.003
03/03/2022,10:05:19,0.164,0.0,0.215,0.002
03/03/2022,10:06:19,0.166,0.0,0.218,0.003
03/03/2022,10:07:19,0.176,0.0,0.221,0.003
03/03/2022,10:08:19,0.184,0.0,0.224,0.003
03/03/2022,10:09:19,0.186,0.0,0.227,0.003
03/03/2022,10:10:19,0.190,0.0,0.23,0.003
03/03/2022,10:11:19,0.203,0.0,0.233,0.003
03/03/2022,10:12:27,0.213,0.0,0.237,0.004
03/03/2022,10:13:19,0.218,1.0,0.24,0.003
03/03/2022,10:14:19,0.209,0.0,0.244,0.004
03/03/2022,10:15:19,0.197,0.0,0.247,0.003
03/03/2022,10:16:19,0.208,0.0,0.251,0.004
03/03/2022,10:17:19,0.209,0.0,0.254,0.003
03/03/2022,10:18:21,0.204,0.0,0.258,0.004
03/03/2022,10:19:19,0.203,0.0,0.261,0.003
03/03/2022,10:20:19,0.214,0.0,0.264,0.003
03/03/2022,10:21:20,0.214,0.0,0.268,0.004
03/03/2022,10:22:20,0.198,0.0,0.272,0.004